Location: Unspecified
(0.0000°N, 0.0000°E)
Time: 14:59:12
(UTC+01:00)

Palapa 6 Rocket - Visible Passes

Search period start: 20 January 2017 00:00
Search period end: 30 January 2017 00:00
Orbit: 485 x 1221 km, 22.8° (Epoch: 20 January)

Date Brightness Start Highest point End Pass type
(mag) Time Alt. Az. Time Alt. Az. Time Alt. Az.
20 Jan 6.6 03:39:23 12° ESE 03:39:23 12° ESE 03:39:43 10° ESE visible
20 Jan 4.5 05:21:18 39° SW 05:22:23 42° SSW 05:27:46 10° SE visible
20 Jan 6.1 19:54:31 10° NNW 19:56:56 12° N 19:59:30 10° NNE visible
21 Jan 4.7 05:07:53 38° SSW 05:08:10 38° SSW 05:13:43 10° SE visible
21 Jan 6.1 19:41:52 10° NNW 19:42:55 10° N 19:44:01 10° N visible
22 Jan 5.0 04:54:27 35° SSW 04:54:27 35° SSW 04:59:36 10° SE visible
22 Jan 6.0 06:40:59 10° SW 06:43:14 12° SSW 06:45:22 10° S visible
23 Jan 5.3 04:41:00 31° S 04:41:00 31° S 04:45:28 10° SE visible
23 Jan 6.1 06:27:01 10° SW 06:29:11 12° SSW 06:31:14 10° S visible
24 Jan 5.7 04:27:31 26° S 04:27:31 26° S 04:31:17 10° SE visible
24 Jan 6.2 06:13:00 10° SW 06:15:07 11° SSW 06:17:08 10° S visible
25 Jan 6.0 04:13:59 22° SSE 04:13:59 22° SSE 04:17:04 10° SE visible
25 Jan 6.3 05:58:58 10° SW 06:01:03 11° SSW 06:03:02 10° S visible
26 Jan 6.3 04:00:28 19° SSE 04:00:28 19° SSE 04:02:49 10° SSE visible
26 Jan 6.3 05:44:54 10° SSW 05:46:58 11° SSW 05:48:58 10° S visible
27 Jan 6.5 03:46:55 15° SSE 03:46:55 15° SSE 03:48:31 10° SSE visible
27 Jan 6.4 05:30:47 10° SSW 05:32:54 11° SSW 05:34:55 10° S visible
28 Jan 6.7 03:33:23 12° SSE 03:33:23 12° SSE 03:34:11 10° SSE visible
28 Jan 6.5 05:16:39 10° SSW 05:18:49 11° S 05:20:54 10° S visible
29 Jan 6.5 05:02:29 10° SSW 05:04:44 11° S 05:06:55 10° S visible
29 Jan 5.9 21:25:35 10° NW 21:26:35 14° NNW 21:26:35 14° NNW visible
